Year,Month,Day,Hour,Minute,Value (Times are PST for temperature in C)
2016,05,30,00,00,10.80
2016,05,30,00,01,10.80
2016,05,30,00,02,10.80
2016,05,30,00,03,10.80
2016,05,30,00,04,10.70
2016,05,30,00,05,10.70
2016,05,30,00,06,10.70
2016,05,30,00,07,10.70
2016,05,30,00,08,10.70
2016,05,30,00,09,10.70
2016,05,30,00,10,10.60
2016,05,30,00,11,10.60
2016,05,30,00,12,10.60
2016,05,30,00,13,10.60
2016,05,30,00,14,10.60
2016,05,30,00,15,10.50
2016,05,30,00,16,10.50
2016,05,30,00,17,10.60
2016,05,30,00,18,10.60
2016,05,30,00,19,10.60
2016,05,30,00,20,10.60
2016,05,30,00,21,10.60
2016,05,30,00,22,10.70
2016,05,30,00,23,10.70
2016,05,30,00,24,10.70
2016,05,30,00,25,10.70
2016,05,30,00,26,10.70
2016,05,30,00,27,10.60
2016,05,30,00,28,10.60
2016,05,30,00,29,10.50
2016,05,30,00,30,10.50
2016,05,30,00,31,10.40
2016,05,30,00,32,10.30
2016,05,30,00,33,10.30
2016,05,30,00,34,10.20
2016,05,30,00,35,10.20
2016,05,30,00,36,10.10
2016,05,30,00,37,10.10
2016,05,30,00,38,10.00
2016,05,30,00,39,10.00
2016,05,30,00,40,9.90
2016,05,30,00,41,9.90
2016,05,30,00,42,9.80
2016,05,30,00,43,9.80
2016,05,30,00,44,9.80
2016,05,30,00,45,9.80
2016,05,30,00,46,9.70
2016,05,30,00,47,9.70
2016,05,30,00,48,9.70
2016,05,30,00,49,9.70
2016,05,30,00,50,9.60
2016,05,30,00,51,9.60
2016,05,30,00,52,9.50
2016,05,30,00,53,9.50
2016,05,30,00,54,9.40
2016,05,30,00,55,9.40
2016,05,30,00,56,9.40
2016,05,30,00,57,9.40
2016,05,30,00,58,9.40
2016,05,30,00,59,9.40
2016,05,30,01,00,9.40
2016,05,30,01,01,9.40
2016,05,30,01,02,9.30
2016,05,30,01,03,9.30
2016,05,30,01,04,9.30
2016,05,30,01,05,9.30
2016,05,30,01,06,9.30
2016,05,30,01,07,9.40
2016,05,30,01,08,9.40
2016,05,30,01,09,9.40
2016,05,30,01,10,9.40
2016,05,30,01,11,9.50
2016,05,30,01,12,9.50
2016,05,30,01,13,9.50
2016,05,30,01,14,9.60
2016,05,30,01,15,9.60
2016,05,30,01,16,9.60
2016,05,30,01,17,9.60
2016,05,30,01,18,9.60
2016,05,30,01,19,9.60
2016,05,30,01,20,9.60
2016,05,30,01,21,9.50
2016,05,30,01,22,9.50
2016,05,30,01,23,9.50
2016,05,30,01,24,9.40
2016,05,30,01,25,9.40
2016,05,30,01,26,9.30
2016,05,30,01,27,9.30
2016,05,30,01,28,9.20
2016,05,30,01,29,9.20
2016,05,30,01,30,9.10
2016,05,30,01,31,9.10
2016,05,30,01,32,9.10
2016,05,30,01,33,9.10
2016,05,30,01,34,9.00
2016,05,30,01,35,9.00
2016,05,30,01,36,9.00
2016,05,30,01,37,9.00
2016,05,30,01,38,9.00
2016,05,30,01,39,9.00
2016,05,30,01,40,8.90
2016,05,30,01,41,8.90
2016,05,30,01,42,8.90
2016,05,30,01,43,8.90
2016,05,30,01,44,8.90
2016,05,30,01,45,8.80
2016,05,30,01,46,8.80
2016,05,30,01,47,8.80
2016,05,30,01,48,8.70
2016,05,30,01,49,8.70
2016,05,30,01,50,8.70
2016,05,30,01,51,8.70
2016,05,30,01,52,8.60
2016,05,30,01,53,8.60
2016,05,30,01,54,8.60
2016,05,30,01,55,8.60
2016,05,30,01,56,8.60
2016,05,30,01,57,8.60
2016,05,30,01,58,8.60
2016,05,30,01,59,8.60
2016,05,30,02,00,8.60
2016,05,30,02,01,8.60
2016,05,30,02,02,8.60
2016,05,30,02,03,8.70
2016,05,30,02,04,8.70
2016,05,30,02,05,8.70
2016,05,30,02,06,8.70
2016,05,30,02,07,8.70
2016,05,30,02,08,8.70
2016,05,30,02,09,8.70
2016,05,30,02,10,8.80
2016,05,30,02,11,8.80
2016,05,30,02,12,8.80
2016,05,30,02,13,8.80
2016,05,30,02,14,8.80
2016,05,30,02,15,8.80
2016,05,30,02,16,8.80
2016,05,30,02,17,8.80
2016,05,30,02,18,8.80
2016,05,30,02,19,8.80
2016,05,30,02,20,8.70
2016,05,30,02,21,8.70
2016,05,30,02,22,8.60
2016,05,30,02,23,8.60
2016,05,30,02,24,8.50
2016,05,30,02,25,8.50
2016,05,30,02,26,8.40
2016,05,30,02,27,8.40
2016,05,30,02,28,8.30
2016,05,30,02,29,8.30
2016,05,30,02,30,8.20
2016,05,30,02,31,8.20
2016,05,30,02,32,8.10
2016,05,30,02,33,8.10
2016,05,30,02,34,8.10
2016,05,30,02,35,8.10
2016,05,30,02,36,8.10
2016,05,30,02,37,8.10
2016,05,30,02,38,8.10
2016,05,30,02,39,8.10
2016,05,30,02,40,8.10
2016,05,30,02,41,8.00
2016,05,30,02,42,8.00
2016,05,30,02,43,8.00
2016,05,30,02,44,8.00
2016,05,30,02,45,8.00
2016,05,30,02,46,8.00
2016,05,30,02,47,8.00
2016,05,30,02,48,8.10
2016,05,30,02,49,8.10
2016,05,30,02,50,8.10
2016,05,30,02,51,8.10
2016,05,30,02,52,8.10
2016,05,30,02,53,8.10
2016,05,30,02,54,8.10
2016,05,30,02,55,8.00
2016,05,30,02,56,8.00
2016,05,30,02,57,8.00
2016,05,30,02,58,8.00
2016,05,30,02,59,7.90
2016,05,30,03,00,7.90
2016,05,30,03,01,7.90
2016,05,30,03,02,7.90
2016,05,30,03,03,7.90
2016,05,30,03,04,7.90
2016,05,30,03,05,7.90
2016,05,30,03,06,7.90
2016,05,30,03,07,8.00
2016,05,30,03,08,8.00
2016,05,30,03,09,8.00
2016,05,30,03,10,8.10
2016,05,30,03,11,8.10
2016,05,30,03,12,8.00
2016,05,30,03,13,8.00
2016,05,30,03,14,8.00
2016,05,30,03,15,7.90
2016,05,30,03,16,7.90
2016,05,30,03,17,7.90
2016,05,30,03,18,7.90
2016,05,30,03,19,7.80
2016,05,30,03,20,7.80
2016,05,30,03,21,7.80
2016,05,30,03,22,7.80
2016,05,30,03,23,7.80
2016,05,30,03,24,7.80
2016,05,30,03,25,7.80
2016,05,30,03,26,7.70
2016,05,30,03,27,7.70
2016,05,30,03,28,7.70
2016,05,30,03,29,7.70
2016,05,30,03,30,7.70
2016,05,30,03,31,7.70
2016,05,30,03,32,7.70
2016,05,30,03,33,7.70
2016,05,30,03,34,7.80
2016,05,30,03,35,7.80
2016,05,30,03,36,7.80
2016,05,30,03,37,7.80
2016,05,30,03,38,7.90
2016,05,30,03,39,8.00
2016,05,30,03,40,8.00
2016,05,30,03,41,8.00
2016,05,30,03,42,8.00
2016,05,30,03,43,8.00
2016,05,30,03,44,7.90
2016,05,30,03,45,7.90
2016,05,30,03,46,7.90
2016,05,30,03,47,7.90
2016,05,30,03,48,7.90
2016,05,30,03,49,7.90
2016,05,30,03,50,7.80
2016,05,30,03,51,7.80
2016,05,30,03,52,7.70
2016,05,30,03,53,7.70
2016,05,30,03,54,7.60
2016,05,30,03,55,7.60
2016,05,30,03,56,7.50
2016,05,30,03,57,7.50
2016,05,30,03,58,7.40
2016,05,30,03,59,7.40
2016,05,30,04,00,7.40
2016,05,30,04,01,7.30
2016,05,30,04,02,7.30
2016,05,30,04,03,7.30
2016,05,30,04,04,7.40
2016,05,30,04,05,7.40
2016,05,30,04,06,7.40
2016,05,30,04,07,7.40
2016,05,30,04,08,7.40
2016,05,30,04,09,7.40
2016,05,30,04,10,7.40
2016,05,30,04,11,7.40
2016,05,30,04,12,7.40
2016,05,30,04,13,7.40
2016,05,30,04,14,7.30
2016,05,30,04,15,7.30
2016,05,30,04,16,7.30
2016,05,30,04,17,7.30
2016,05,30,04,18,7.20
2016,05,30,04,19,7.20
2016,05,30,04,20,7.20
2016,05,30,04,21,7.20
2016,05,30,04,22,7.20
2016,05,30,04,23,7.20
2016,05,30,04,24,7.20
2016,05,30,04,25,7.20
2016,05,30,04,26,7.20
2016,05,30,04,27,7.20
2016,05,30,04,28,7.20
2016,05,30,04,29,7.20
2016,05,30,04,30,7.20
2016,05,30,04,31,7.20
2016,05,30,04,32,7.10
2016,05,30,04,33,7.10
2016,05,30,04,34,7.10
2016,05,30,04,35,7.10
2016,05,30,04,36,7.10
2016,05,30,04,37,7.10
2016,05,30,04,38,7.10
2016,05,30,04,39,7.00
2016,05,30,04,40,7.00
2016,05,30,04,41,7.00
2016,05,30,04,42,7.00
2016,05,30,04,43,6.90
2016,05,30,04,44,6.90
2016,05,30,04,45,6.90
2016,05,30,04,46,6.90
2016,05,30,04,47,6.90
2016,05,30,04,48,6.90
2016,05,30,04,49,6.90
2016,05,30,04,50,6.90
2016,05,30,04,51,6.90
2016,05,30,04,52,6.90
2016,05,30,04,53,6.90
2016,05,30,04,54,6.90
2016,05,30,04,55,6.90
2016,05,30,04,56,6.90
2016,05,30,04,57,6.90
2016,05,30,04,58,6.90
2016,05,30,04,59,6.80
2016,05,30,05,00,6.80
2016,05,30,05,01,6.80
2016,05,30,05,02,6.70
2016,05,30,05,03,6.70
2016,05,30,05,04,6.70
2016,05,30,05,05,6.70
2016,05,30,05,06,6.70
2016,05,30,05,07,6.70
2016,05,30,05,08,6.70
2016,05,30,05,09,6.70
2016,05,30,05,10,6.80
2016,05,30,05,11,6.80
2016,05,30,05,12,6.80
2016,05,30,05,13,6.80
2016,05,30,05,14,6.80
2016,05,30,05,15,6.80
2016,05,30,05,16,6.80
2016,05,30,05,17,6.70
2016,05,30,05,18,6.70
2016,05,30,05,19,6.70
2016,05,30,05,20,6.70
2016,05,30,05,21,6.70
2016,05,30,05,22,6.70
2016,05,30,05,23,6.70
2016,05,30,05,24,6.70
2016,05,30,05,25,6.70
2016,05,30,05,26,6.70
2016,05,30,05,27,6.70
2016,05,30,05,28,6.70
2016,05,30,05,29,6.70
2016,05,30,05,30,6.70
2016,05,30,05,31,6.60
2016,05,30,05,32,6.60
2016,05,30,05,33,6.60
2016,05,30,05,34,6.60
2016,05,30,05,35,6.60
2016,05,30,05,36,6.60
2016,05,30,05,37,6.60
2016,05,30,05,38,6.60
2016,05,30,05,39,6.60
2016,05,30,05,40,6.60
2016,05,30,05,41,6.70
2016,05,30,05,42,6.70
2016,05,30,05,43,6.70
2016,05,30,05,44,6.70
2016,05,30,05,45,6.70
2016,05,30,05,46,6.70
2016,05,30,05,47,6.70
2016,05,30,05,48,6.70
2016,05,30,05,49,6.70
2016,05,30,05,50,6.70
2016,05,30,05,51,6.80
2016,05,30,05,52,6.80
2016,05,30,05,53,6.80
2016,05,30,05,54,6.90
2016,05,30,05,55,6.90
2016,05,30,05,56,6.90
2016,05,30,05,57,6.90
2016,05,30,05,58,6.90
2016,05,30,05,59,7.00
2016,05,30,06,00,7.00
2016,05,30,06,01,7.00
2016,05,30,06,02,7.10
2016,05,30,06,03,7.00
2016,05,30,06,04,7.00
2016,05,30,06,05,7.00
2016,05,30,06,06,7.00
2016,05,30,06,07,6.90
2016,05,30,06,08,6.90
2016,05,30,06,09,6.90
2016,05,30,06,10,6.90
2016,05,30,06,11,6.90
2016,05,30,06,12,7.00
2016,05,30,06,13,7.00
2016,05,30,06,14,7.00
2016,05,30,06,15,7.10
2016,05,30,06,16,7.10
2016,05,30,06,17,7.10
2016,05,30,06,18,7.10
2016,05,30,06,19,7.20
2016,05,30,06,20,7.20
2016,05,30,06,21,7.20
2016,05,30,06,22,7.30
2016,05,30,06,23,7.30
2016,05,30,06,24,7.30
2016,05,30,06,25,7.30
2016,05,30,06,26,7.30
2016,05,30,06,27,7.30
2016,05,30,06,28,7.40
2016,05,30,06,29,7.40
2016,05,30,06,30,7.40
2016,05,30,06,31,7.40
2016,05,30,06,32,7.50
2016,05,30,06,33,7.60
2016,05,30,06,34,7.60
2016,05,30,06,35,7.70
2016,05,30,06,36,7.70
2016,05,30,06,37,7.80
2016,05,30,06,38,7.80
2016,05,30,06,39,7.90
2016,05,30,06,40,8.00
2016,05,30,06,41,8.00
2016,05,30,06,42,8.10
2016,05,30,06,43,8.20
2016,05,30,06,44,8.30
2016,05,30,06,45,8.30
2016,05,30,06,46,8.30
2016,05,30,06,47,8.40
2016,05,30,06,48,8.50
2016,05,30,06,49,8.50
2016,05,30,06,50,8.60
2016,05,30,06,51,8.60
2016,05,30,06,52,8.60
2016,05,30,06,53,8.70
2016,05,30,06,54,8.70
2016,05,30,06,55,8.70
2016,05,30,06,56,8.80
2016,05,30,06,57,8.80
2016,05,30,06,58,8.80
2016,05,30,06,59,8.90
2016,05,30,07,00,8.90
2016,05,30,07,01,9.00
2016,05,30,07,02,9.10
2016,05,30,07,03,9.10
2016,05,30,07,04,9.20
2016,05,30,07,05,9.30
2016,05,30,07,06,9.30
2016,05,30,07,07,9.40
2016,05,30,07,08,9.50
2016,05,30,07,09,9.50
2016,05,30,07,10,9.60
2016,05,30,07,11,9.70
2016,05,30,07,12,9.70
2016,05,30,07,13,9.80
2016,05,30,07,14,9.80
2016,05,30,07,15,9.90
2016,05,30,07,16,9.90
2016,05,30,07,17,9.90
2016,05,30,07,18,10.00
2016,05,30,07,19,10.00
2016,05,30,07,20,10.10
2016,05,30,07,21,10.20
2016,05,30,07,22,10.20
2016,05,30,07,23,10.30
2016,05,30,07,24,10.30
2016,05,30,07,25,10.40
2016,05,30,07,26,10.40
2016,05,30,07,27,10.40
2016,05,30,07,28,10.50
2016,05,30,07,29,10.50
2016,05,30,07,30,10.60
2016,05,30,07,31,10.60
2016,05,30,07,32,10.60
2016,05,30,07,33,10.70
2016,05,30,07,34,10.70
2016,05,30,07,35,10.70
2016,05,30,07,36,10.80
2016,05,30,07,37,10.80
2016,05,30,07,38,10.80
2016,05,30,07,39,10.80
2016,05,30,07,40,10.80
2016,05,30,07,41,10.90
2016,05,30,07,42,10.90
2016,05,30,07,43,10.90
2016,05,30,07,44,11.00
2016,05,30,07,45,11.00
2016,05,30,07,46,11.10
2016,05,30,07,47,11.20
2016,05,30,07,48,11.30
2016,05,30,07,49,11.40
2016,05,30,07,50,11.50
2016,05,30,07,51,11.60
2016,05,30,07,52,11.70
2016,05,30,07,53,11.80
2016,05,30,07,54,11.80
2016,05,30,07,55,11.90
2016,05,30,07,56,12.00
2016,05,30,07,57,12.00
2016,05,30,07,58,12.10
2016,05,30,07,59,12.10
2016,05,30,08,00,12.20
2016,05,30,08,01,12.20
2016,05,30,08,02,12.30
2016,05,30,08,03,12.30
2016,05,30,08,04,12.30
2016,05,30,08,05,12.30
2016,05,30,08,06,12.30
2016,05,30,08,07,12.30
2016,05,30,08,08,12.30
2016,05,30,08,09,12.30
2016,05,30,08,10,12.30
2016,05,30,08,11,12.30
2016,05,30,08,12,12.30
2016,05,30,08,13,12.30
2016,05,30,08,14,12.30
2016,05,30,08,15,12.30
2016,05,30,08,16,12.30
2016,05,30,08,17,12.30
2016,05,30,08,18,12.30
2016,05,30,08,19,12.30
2016,05,30,08,20,12.40
2016,05,30,08,21,12.40
2016,05,30,08,22,12.40
2016,05,30,08,23,12.50
2016,05,30,08,24,12.50
2016,05,30,08,25,12.50
2016,05,30,08,26,12.50
2016,05,30,08,27,12.50
2016,05,30,08,28,12.50
2016,05,30,08,29,12.50
2016,05,30,08,30,12.60
2016,05,30,08,31,12.60
2016,05,30,08,32,12.60
2016,05,30,08,33,12.60
2016,05,30,08,34,12.60
2016,05,30,08,35,12.60
2016,05,30,08,36,12.70
2016,05,30,08,37,12.70
2016,05,30,08,38,12.70
2016,05,30,08,39,12.80
2016,05,30,08,40,12.80
2016,05,30,08,41,12.70
2016,05,30,08,42,12.70
2016,05,30,08,43,12.70
2016,05,30,08,44,12.70
2016,05,30,08,45,12.70
2016,05,30,08,46,12.80
2016,05,30,08,47,12.80
2016,05,30,08,48,12.80
2016,05,30,08,49,12.80
2016,05,30,08,50,12.80
2016,05,30,08,51,12.80
2016,05,30,08,52,12.80
2016,05,30,08,53,12.90
2016,05,30,08,54,12.90
2016,05,30,08,55,12.90
2016,05,30,08,56,13.00
2016,05,30,08,57,13.00
2016,05,30,08,58,13.10
2016,05,30,08,59,13.20
2016,05,30,09,00,13.20
2016,05,30,09,01,13.30
2016,05,30,09,02,13.30
2016,05,30,09,03,13.30
2016,05,30,09,04,13.30
2016,05,30,09,05,13.40
2016,05,30,09,06,13.40
2016,05,30,09,07,13.30
2016,05,30,09,08,13.30
2016,05,30,09,09,13.40
2016,05,30,09,10,13.40
2016,05,30,09,11,13.50
2016,05,30,09,12,13.50
2016,05,30,09,13,13.60
2016,05,30,09,14,13.60
2016,05,30,09,15,13.60
2016,05,30,09,16,13.60
2016,05,30,09,17,13.70
2016,05,30,09,18,13.70
2016,05,30,09,19,13.70
2016,05,30,09,20,13.80
2016,05,30,09,21,13.80
2016,05,30,09,22,13.80
2016,05,30,09,23,13.80
2016,05,30,09,24,13.80
2016,05,30,09,25,13.80
2016,05,30,09,26,13.80
2016,05,30,09,27,13.80
2016,05,30,09,28,13.90
2016,05,30,09,29,13.90
2016,05,30,09,30,14.00
2016,05,30,09,31,14.00
2016,05,30,09,32,14.10
2016,05,30,09,33,14.10
2016,05,30,09,34,14.10
2016,05,30,09,35,14.10
2016,05,30,09,36,14.10
2016,05,30,09,37,14.20
2016,05,30,09,38,14.20
2016,05,30,09,39,14.30
2016,05,30,09,40,14.30
2016,05,30,09,41,14.40
2016,05,30,09,42,14.40
2016,05,30,09,43,14.40
2016,05,30,09,44,14.40
2016,05,30,09,45,14.40
2016,05,30,09,46,14.30
2016,05,30,09,47,14.30
2016,05,30,09,48,14.30
2016,05,30,09,49,14.30
2016,05,30,09,50,14.30
2016,05,30,09,51,14.40
2016,05,30,09,52,14.40
2016,05,30,09,53,14.50
2016,05,30,09,54,14.50
2016,05,30,09,55,14.60
2016,05,30,09,56,14.60
2016,05,30,09,57,14.60
2016,05,30,09,58,14.60
2016,05,30,09,59,14.70
2016,05,30,10,00,14.80
2016,05,30,10,01,14.90
2016,05,30,10,02,15.00
2016,05,30,10,03,15.10
2016,05,30,10,04,15.20
2016,05,30,10,05,15.30
2016,05,30,10,06,15.30
2016,05,30,10,07,15.30
2016,05,30,10,08,15.30
2016,05,30,10,09,15.20
2016,05,30,10,10,15.20
2016,05,30,10,11,15.20
2016,05,30,10,12,15.20
2016,05,30,10,13,15.30
2016,05,30,10,14,15.30
2016,05,30,10,15,15.30
2016,05,30,10,16,15.30
2016,05,30,10,17,15.30
2016,05,30,10,18,15.30
2016,05,30,10,19,15.30
2016,05,30,10,20,15.30
2016,05,30,10,21,15.30
2016,05,30,10,22,15.30
2016,05,30,10,23,15.30
2016,05,30,10,24,15.40
2016,05,30,10,25,15.40
2016,05,30,10,26,15.50
2016,05,30,10,27,15.50
2016,05,30,10,28,15.60
2016,05,30,10,29,15.60
2016,05,30,10,30,15.60
2016,05,30,10,31,15.70
2016,05,30,10,32,15.70
2016,05,30,10,33,15.80
2016,05,30,10,34,15.80
2016,05,30,10,35,16.00
2016,05,30,10,36,16.10
2016,05,30,10,37,16.10
2016,05,30,10,38,16.10
2016,05,30,10,39,16.00
2016,05,30,10,40,16.00
2016,05,30,10,41,16.00
2016,05,30,10,42,16.00
2016,05,30,10,43,15.90
2016,05,30,10,44,15.90
2016,05,30,10,45,15.90
2016,05,30,10,46,15.90
2016,05,30,10,47,15.90
2016,05,30,10,48,15.90
2016,05,30,10,49,15.80
2016,05,30,10,50,15.80
2016,05,30,10,51,15.80
2016,05,30,10,52,15.80
2016,05,30,10,53,15.90
2016,05,30,10,54,16.00
2016,05,30,10,55,16.00
2016,05,30,10,56,16.10
2016,05,30,10,57,16.20
2016,05,30,10,58,16.20
2016,05,30,10,59,16.20
2016,05,30,11,00,16.20
2016,05,30,11,01,16.20
2016,05,30,11,02,16.10
2016,05,30,11,03,16.10
2016,05,30,11,04,16.10
2016,05,30,11,05,16.10
2016,05,30,11,06,16.10
2016,05,30,11,07,16.10
2016,05,30,11,08,16.10
2016,05,30,11,09,16.10
2016,05,30,11,10,16.10
2016,05,30,11,11,16.20
2016,05,30,11,12,16.20
2016,05,30,11,13,16.40
2016,05,30,11,14,16.40
2016,05,30,11,15,16.50
2016,05,30,11,16,16.60
2016,05,30,11,17,16.70
2016,05,30,11,18,16.70
2016,05,30,11,19,16.70
2016,05,30,11,20,16.70
2016,05,30,11,21,16.60
2016,05,30,11,22,16.50
2016,05,30,11,23,16.40
2016,05,30,11,24,16.40
2016,05,30,11,25,16.30
2016,05,30,11,26,16.30
2016,05,30,11,27,16.30
2016,05,30,11,28,16.30
2016,05,30,11,29,16.30
2016,05,30,11,30,16.30
2016,05,30,11,31,16.30
2016,05,30,11,32,16.30
2016,05,30,11,33,16.30
2016,05,30,11,34,16.30
2016,05,30,11,35,16.30
2016,05,30,11,36,16.30
2016,05,30,11,37,16.30
2016,05,30,11,38,16.30
2016,05,30,11,39,16.30
2016,05,30,11,40,16.40
2016,05,30,11,41,16.40
2016,05,30,11,42,16.40
2016,05,30,11,43,16.50
2016,05,30,11,44,16.50
2016,05,30,11,45,16.50
2016,05,30,11,46,16.60
2016,05,30,11,47,16.60
2016,05,30,11,48,16.60
2016,05,30,11,49,16.60
2016,05,30,11,50,16.60
2016,05,30,11,51,16.70
2016,05,30,11,52,16.80
2016,05,30,11,53,16.90
2016,05,30,11,54,16.90
2016,05,30,11,55,17.00
2016,05,30,11,56,17.10
2016,05,30,11,57,17.10
2016,05,30,11,58,17.20
2016,05,30,11,59,17.20
2016,05,30,12,00,17.20
2016,05,30,12,01,17.20
2016,05,30,12,02,17.20
2016,05,30,12,03,17.20
2016,05,30,12,04,17.10
2016,05,30,12,05,17.10
2016,05,30,12,06,17.20
2016,05,30,12,07,17.20
2016,05,30,12,08,17.30
2016,05,30,12,09,17.30
2016,05,30,12,10,17.40
2016,05,30,12,11,17.40
2016,05,30,12,12,17.50
2016,05,30,12,13,17.50
2016,05,30,12,14,17.60
2016,05,30,12,15,17.60
2016,05,30,12,16,17.50
2016,05,30,12,17,17.50
2016,05,30,12,18,17.40
2016,05,30,12,19,17.30
2016,05,30,12,20,17.20
2016,05,30,12,21,17.20
2016,05,30,12,22,17.20
2016,05,30,12,23,17.20
2016,05,30,12,24,17.20
2016,05,30,12,25,17.20
2016,05,30,12,26,17.20
2016,05,30,12,27,17.30
2016,05,30,12,28,17.30
2016,05,30,12,29,17.30
2016,05,30,12,30,17.30
2016,05,30,12,31,17.40
2016,05,30,12,32,17.40
2016,05,30,12,33,17.40
2016,05,30,12,34,17.40
2016,05,30,12,35,17.40
2016,05,30,12,36,17.40
2016,05,30,12,37,17.30
2016,05,30,12,38,17.30
2016,05,30,12,39,17.30
2016,05,30,12,40,17.30
2016,05,30,12,41,17.30
2016,05,30,12,42,17.30
2016,05,30,12,43,17.30
2016,05,30,12,44,17.30
2016,05,30,12,45,17.30
2016,05,30,12,46,17.30
2016,05,30,12,47,17.30
2016,05,30,12,48,17.30
2016,05,30,12,49,17.30
2016,05,30,12,50,17.30
2016,05,30,12,51,17.30
2016,05,30,12,52,17.30
2016,05,30,12,53,17.40
2016,05,30,12,54,17.40
2016,05,30,12,55,17.50
2016,05,30,12,56,17.50
2016,05,30,12,57,17.50
2016,05,30,12,58,17.50
2016,05,30,12,59,17.40
2016,05,30,13,00,17.40
2016,05,30,13,01,17.40
2016,05,30,13,02,17.50
2016,05,30,13,03,17.50
2016,05,30,13,04,17.50
2016,05,30,13,05,17.50
2016,05,30,13,06,17.60
2016,05,30,13,07,17.60
2016,05,30,13,08,17.50
2016,05,30,13,09,17.50
2016,05,30,13,10,17.40
2016,05,30,13,11,17.40
2016,05,30,13,12,17.30
2016,05,30,13,13,17.40
2016,05,30,13,14,17.50
2016,05,30,13,15,17.60
2016,05,30,13,16,17.70
2016,05,30,13,17,17.90
2016,05,30,13,18,18.00
2016,05,30,13,19,18.10
2016,05,30,13,20,18.20
2016,05,30,13,21,18.20
2016,05,30,13,22,18.20
2016,05,30,13,23,18.20
2016,05,30,13,24,18.10
2016,05,30,13,25,18.10
2016,05,30,13,26,18.10
2016,05,30,13,27,18.10
2016,05,30,13,28,18.10
2016,05,30,13,29,18.10
2016,05,30,13,30,18.10
2016,05,30,13,31,18.10
2016,05,30,13,32,18.10
2016,05,30,13,33,18.10
2016,05,30,13,34,18.10
2016,05,30,13,35,18.10
2016,05,30,13,36,18.20
2016,05,30,13,37,18.20
2016,05,30,13,38,18.20
2016,05,30,13,39,18.20
2016,05,30,13,40,18.20
2016,05,30,13,41,18.20
2016,05,30,13,42,18.20
2016,05,30,13,43,18.20
2016,05,30,13,44,18.30
2016,05,30,13,45,18.30
2016,05,30,13,46,18.40
2016,05,30,13,47,18.40
2016,05,30,13,48,18.40
2016,05,30,13,49,18.30
2016,05,30,13,50,18.20
2016,05,30,13,51,18.20
2016,05,30,13,52,18.20
2016,05,30,13,53,18.20
2016,05,30,13,54,18.20
2016,05,30,13,55,18.20
2016,05,30,13,56,18.20
2016,05,30,13,57,18.20
2016,05,30,13,58,18.30
2016,05,30,13,59,18.30
2016,05,30,14,00,18.30
2016,05,30,14,01,18.30
2016,05,30,14,02,18.30
2016,05,30,14,03,18.20
2016,05,30,14,04,18.20
2016,05,30,14,05,18.20
2016,05,30,14,06,18.20
2016,05,30,14,07,18.20
2016,05,30,14,08,18.20
2016,05,30,14,09,18.30
2016,05,30,14,10,18.30
2016,05,30,14,11,18.40
2016,05,30,14,12,18.40
2016,05,30,14,13,18.40
2016,05,30,14,14,18.40
2016,05,30,14,15,18.30
2016,05,30,14,16,18.30
2016,05,30,14,17,18.40
2016,05,30,14,18,18.40
2016,05,30,14,19,18.50
2016,05,30,14,20,18.50
2016,05,30,14,21,18.60
2016,05,30,14,22,18.60
2016,05,30,14,23,18.60
2016,05,30,14,24,18.60
2016,05,30,14,25,18.60
2016,05,30,14,26,18.60
2016,05,30,14,27,18.60
2016,05,30,14,28,18.60
2016,05,30,14,29,18.60
2016,05,30,14,30,18.60
2016,05,30,14,31,18.70
2016,05,30,14,32,18.60
2016,05,30,14,33,18.60
2016,05,30,14,34,18.50
2016,05,30,14,35,18.40
2016,05,30,14,36,18.40
2016,05,30,14,37,18.40
2016,05,30,14,38,18.50
2016,05,30,14,39,18.40
2016,05,30,14,40,18.40
2016,05,30,14,41,18.40
2016,05,30,14,42,18.40
2016,05,30,14,43,18.40
2016,05,30,14,44,18.40
2016,05,30,14,45,18.50
2016,05,30,14,46,18.60
2016,05,30,14,47,18.70
2016,05,30,14,48,18.70
2016,05,30,14,49,18.80
2016,05,30,14,50,18.80
2016,05,30,14,51,18.70
2016,05,30,14,52,18.70
2016,05,30,14,53,18.60
2016,05,30,14,54,18.60
2016,05,30,14,55,18.50
2016,05,30,14,56,18.40
2016,05,30,14,57,18.40
2016,05,30,14,58,18.50
2016,05,30,14,59,18.50
2016,05,30,15,00,18.60
2016,05,30,15,01,18.60
2016,05,30,15,02,18.60
2016,05,30,15,03,18.60
2016,05,30,15,04,18.60
2016,05,30,15,05,18.60
2016,05,30,15,06,18.70
2016,05,30,15,07,18.60
2016,05,30,15,08,18.60
2016,05,30,15,09,18.60
2016,05,30,15,10,18.60
2016,05,30,15,11,18.60
2016,05,30,15,12,18.60
2016,05,30,15,13,18.60
2016,05,30,15,14,18.50
2016,05,30,15,15,18.50
2016,05,30,15,16,18.50
2016,05,30,15,17,18.50
2016,05,30,15,18,18.50
2016,05,30,15,19,18.50
2016,05,30,15,20,18.50
2016,05,30,15,21,18.60
2016,05,30,15,22,18.60
2016,05,30,15,23,18.60
2016,05,30,15,24,18.70
2016,05,30,15,25,18.70
2016,05,30,15,26,18.80
2016,05,30,15,27,18.80
2016,05,30,15,28,18.80
2016,05,30,15,29,18.80
2016,05,30,15,30,18.80
2016,05,30,15,31,18.80
2016,05,30,15,32,18.80
2016,05,30,15,33,18.80
2016,05,30,15,34,18.80
2016,05,30,15,35,18.80
2016,05,30,15,36,18.80
2016,05,30,15,37,18.80
2016,05,30,15,38,18.80
2016,05,30,15,39,18.80
2016,05,30,15,40,18.80
2016,05,30,15,41,18.70
2016,05,30,15,42,18.70
2016,05,30,15,43,18.70
2016,05,30,15,44,18.80
2016,05,30,15,45,18.80
2016,05,30,15,46,18.80
2016,05,30,15,47,18.80
2016,05,30,15,48,18.80
2016,05,30,15,49,18.80
2016,05,30,15,50,18.80
2016,05,30,15,51,18.80
2016,05,30,15,52,18.90
2016,05,30,15,53,18.90
2016,05,30,15,54,18.90
2016,05,30,15,55,18.90
2016,05,30,15,56,19.00
2016,05,30,15,57,19.00
2016,05,30,15,58,19.10
2016,05,30,15,59,19.00
2016,05,30,16,00,19.00
2016,05,30,16,01,19.10
2016,05,30,16,02,19.10
2016,05,30,16,03,19.10
2016,05,30,16,04,19.20
2016,05,30,16,05,19.20
2016,05,30,16,06,19.10
2016,05,30,16,07,19.10
2016,05,30,16,08,19.10
2016,05,30,16,09,19.10
2016,05,30,16,10,19.10
2016,05,30,16,11,19.20
2016,05,30,16,12,19.20
2016,05,30,16,13,19.30
2016,05,30,16,14,19.30
2016,05,30,16,15,19.30
2016,05,30,16,16,19.30
2016,05,30,16,17,19.30
2016,05,30,16,18,19.30
2016,05,30,16,19,19.40
2016,05,30,16,20,19.40
2016,05,30,16,21,19.50
2016,05,30,16,22,19.50
2016,05,30,16,23,19.60
2016,05,30,16,24,19.60
2016,05,30,16,25,19.60
2016,05,30,16,26,19.60
2016,05,30,16,27,19.60
2016,05,30,16,28,19.60
2016,05,30,16,29,19.50
2016,05,30,16,30,19.50
2016,05,30,16,31,19.50
2016,05,30,16,32,19.50
2016,05,30,16,33,19.50
2016,05,30,16,34,19.50
2016,05,30,16,35,19.50
2016,05,30,16,36,19.50
2016,05,30,16,37,19.50
2016,05,30,16,38,19.60
2016,05,30,16,39,19.70
2016,05,30,16,40,19.70
2016,05,30,16,41,19.80
2016,05,30,16,42,19.80
2016,05,30,16,43,19.90
2016,05,30,16,44,19.90
2016,05,30,16,45,19.90
2016,05,30,16,46,20.00
2016,05,30,16,47,20.00
2016,05,30,16,48,20.10
2016,05,30,16,49,20.10
2016,05,30,16,50,20.00
2016,05,30,16,51,20.00
2016,05,30,16,52,19.90
2016,05,30,16,53,19.80
2016,05,30,16,54,19.80
2016,05,30,16,55,19.80
2016,05,30,16,56,19.80
2016,05,30,16,57,19.80
2016,05,30,16,58,19.80
2016,05,30,16,59,19.80
2016,05,30,17,00,19.90
2016,05,30,17,01,19.90
2016,05,30,17,02,20.00
2016,05,30,17,03,20.00
2016,05,30,17,04,20.00
2016,05,30,17,05,19.90
2016,05,30,17,06,19.90
2016,05,30,17,07,19.90
2016,05,30,17,08,19.90
2016,05,30,17,09,19.90
2016,05,30,17,10,19.90
2016,05,30,17,11,20.00
2016,05,30,17,12,20.00
2016,05,30,17,13,20.10
2016,05,30,17,14,20.10
2016,05,30,17,15,20.10
2016,05,30,17,16,20.10
2016,05,30,17,17,20.10
2016,05,30,17,18,20.10
2016,05,30,17,19,20.00
2016,05,30,17,20,20.00
2016,05,30,17,21,19.90
2016,05,30,17,22,19.90
2016,05,30,17,23,19.90
2016,05,30,17,24,19.90
2016,05,30,17,25,19.90
2016,05,30,17,26,19.90
2016,05,30,17,27,19.90
2016,05,30,17,28,19.90
2016,05,30,17,29,19.80
2016,05,30,17,30,19.80
2016,05,30,17,31,19.80
2016,05,30,17,32,19.80
2016,05,30,17,33,19.70
2016,05,30,17,34,19.70
2016,05,30,17,35,19.70
2016,05,30,17,36,19.70